User: anonymous   Login
Location: Newark
(35.8833°N, 14.5000°E)
Time: 18:18:36
(UTC+00:00)
Language:

AO-91 - Orbit

View from above orbital plane
View from above orbital plane
View from above satellite
View from above satellite

Ground track
Ground track

The orbit data is extracted from the following two-line orbital elements,

1 43017U 17073E   20215.73340368 +.00000231 +00000-0 +24042-4 0  9999
2 43017 097.7199 126.1835 0255330 259.5412 097.6938 14.78983112146008
Epoch (UTC): 02 August 2020 17:36:06
Eccentricity: 0.0255330
inclination: 97.7199°
perigee height: 453 km
apogee height: 811 km
right ascension of ascending node: 126.1835°
argument of perigee: 259.5412°
revolutions per day: 14.78983112
mean anomaly at epoch: 97.6938°
orbit number at epoch: 14600

The dashed part of the orbit path shows where the satellite is in the earth's shadow,  

DLR